FW6944 Weather Reports


time (UTC)temp
C
wind
direction
speed
KPH
gust
KPH
rain 1hr
cm
rain 24hr
cm
rain mn
cm
humidity
%
barometer
mb
20260906101243 19 86 1.6 4.8 0.00 0.00 0.00 93 995.7
20260906100742 19 134 1.6 4.8 0.00 0.00 0.00 93 995.5
20260906100241 19 92 1.6 6.4 0.00 0.00 0.00 93 995.6
20260906095244 19 115 1.6 6.4 0.00 0.00 0.00 93 995.5
20260906094737 19 109 0.0 4.8 0.00 0.00 0.00 93 995.6
20260906094232 19 192 0.0 0.0 0.00 0.00 0.00 92 995.5
20260906093725 19 194 0.0 0.0 0.00 0.00 0.00 92 995.5
20260906093219 19 187 0.0 0.0 0.00 0.00 0.00 92 995.5
20260906092713 19 111 0.0 0.0 0.00 0.00 0.00 91 995.4
20260906091701 20 111 0.0 0.0 0.00 0.00 0.00 91 995.5
20260906091154 20 111 0.0 0.0 0.00 0.00 0.00 91 995.6
20260906090649 20 111 0.0 1.6 0.00 0.00 0.00 91 995.6
20260906090143 20 111 0.0 4.8 0.00 0.00 0.00 91 995.8
20260906085637 20 111 1.6 4.8 0.00 0.00 0.00 91 995.8
20260906084624 20 127 0.0 4.8 0.00 0.00 0.00 90 995.7
20260906084119 20 136 0.0 3.2 0.00 0.00 0.00 90 995.5
20260906083612 20 136 0.0 3.2 0.00 0.00 0.00 90 995.6
20260906082601 20 137 0.0 4.8 0.00 0.00 0.00 90 995.8
20260906082055 20 137 1.6 8.0 0.00 0.00 0.00 90 995.7
20260906081549 20 152 3.2 11.3 0.00 0.00 0.00 90 995.7
20260906081043 20 169 1.6 11.3 0.00 0.00 0.00 90 995.7
20260906080537 20 111 0.0 3.2 0.00 0.00 0.00 89 995.7
20260906080031 20 108 0.0 3.2 0.00 0.00 0.00 89 995.9
20260906075524 21 102 0.0 0.0 0.00 0.00 0.00 88 995.8
20260906075019 21 102 0.0 1.6 0.00 0.00 0.00 88 995.9
20260906074513 21 102 0.0 4.8 0.00 0.00 0.00 88 995.9
20260906074007 21 102 1.6 6.4 0.00 0.00 0.00 88 995.8
20260906073501 21 164 1.6 11.3 0.00 0.00 0.00 88 995.8
20260906072955 21 102 3.2 11.3 0.00 0.00 0.00 88 995.8
20260906071943 21 121 4.8 11.3 0.00 0.00 0.00 88 995.7
20260906070930 21 103 4.8 12.9 0.00 0.00 0.00 88 995.7
20260906070425 21 92 4.8 12.9 0.00 0.00 0.00 87 995.7
20260906065919 21 108 4.8 11.3 0.00 0.00 0.00 87 995.8
20260906065413 21 105 6.4 12.9 0.00 0.00 0.00 87 995.9
20260906064907 21 94 4.8 12.9 0.00 0.00 0.00 87 995.9
20260906064401 21 84 4.8 14.5 0.00 0.00 0.00 87 995.9
20260906063855 21 108 4.8 14.5 0.00 0.00 0.00 87 996.1
20260906062842 22 163 4.8 14.5 0.00 0.00 0.00 88 996.0
20260906062337 22 104 4.8 14.5 0.00 0.00 0.00 88 996.1
20260906060819 22 102 1.6 6.4 0.00 0.00 0.00 88 996.0
20260906055816 22 115 4.8 14.5 0.00 0.00 0.00 88 996.0
20260906055317 22 137 3.2 14.5 0.00 0.00 0.00 88 996.0
20260906054315 22 90 4.8 14.5 0.00 0.00 0.00 88 996.0
20260906053815 22 115 4.8 14.5 0.00 0.00 0.00 88 995.9
20260906052815 22 103 1.6 6.4 0.00 0.00 0.00 88 996.0
20260906052315 22 65 0.0 6.4 0.00 0.00 0.00 88 995.9
20260906051815 23 134 1.6 6.4 0.00 0.00 0.00 87 995.8
20260906051315 23 107 1.6 6.4 0.00 0.00 0.00 87 995.7
20260906050813 23 99 1.6 6.4 0.00 0.00 0.00 87 995.6
20260906050312 23 81 1.6 6.4 0.00 0.00 0.00 87 995.6
20260906045811 23 97 3.2 6.4 0.00 0.00 0.00 87 995.6
20260906045311 23 65 1.6 6.4 0.00 0.00 0.00 87 995.6
20260906044811 23 63 1.6 4.8 0.00 0.00 0.00 87 995.6
20260906044311 23 71 1.6 4.8 0.00 0.00 0.00 87 995.6
20260906043804 23 44 1.6 4.8 0.00 0.00 0.00 86 995.6
20260906043259 23 27 0.0 3.2 0.00 0.00 0.00 86 995.6
20260906042752 23 27 0.0 4.8 0.00 0.00 0.00 86 995.7
20260906041740 23 18 3.2 6.4 0.00 0.00 0.00 86 995.6
20260906041234 23 16 3.2 6.4 0.00 0.00 0.00 85 995.5
20260906040728 23 17 3.2 6.4 0.00 0.00 0.00 85 995.4
20260906040223 23 38 3.2 6.4 0.00 0.00 0.00 85 995.3
20260906035716 23 36 1.6 6.4 0.00 0.00 0.00 85 995.3
20260906035211 23 55 1.6 9.7 0.00 0.00 0.00 85 995.2
20260906034705 23 67 1.6 9.7 0.00 0.00 0.00 85 995.0
20260906034159 23 111 1.6 4.8 0.00 0.00 0.00 85 994.7
20260906033652 23 80 1.6 6.4 0.00 0.00 0.00 85 994.8
20260906033146 23 88 1.6 6.4 0.00 0.00 0.00 85 994.8
20260906032641 23 103 1.6 6.4 0.00 0.00 0.00 85 994.7
20260906031629 24 92 1.6 4.8 0.00 0.00 0.00 84 994.6
20260906031122 24 38 1.6 4.8 0.00 0.00 0.00 84 994.7
20260906030617 24 38 1.6 4.8 0.00 0.00 0.00 84 994.7
20260906030111 24 84 1.6 4.8 0.00 0.00 0.00 84 994.6
20260906025604 24 56 0.0 4.8 0.00 0.00 0.00 84 994.6
20260906025059 24 56 0.0 4.8 0.00 0.00 0.00 83 994.5
20260906024553 24 55 1.6 4.8 0.00 0.00 0.00 83 994.5
20260906024047 24 56 1.6 4.8 0.00 0.00 0.00 83 994.6
20260906023540 24 71 0.0 4.8 0.00 0.00 0.00 83 994.4
20260906022022 25 70 1.6 8.0 0.00 0.00 0.00 82 994.1
20260906021010 25 84 3.2 6.4 0.00 0.00 0.00 82 993.9
20260906020504 25 103 1.6 9.7 0.00 0.00 0.00 82 993.8
20260906015958 25 106 1.6 11.3 0.00 0.00 0.00 82 993.7
20260906015452 25 90 3.2 11.3 0.00 0.00 0.00 82 993.6
20260906014947 25 98 3.2 6.4 0.00 0.00 0.00 82 993.6
20260906014440 25 105 3.2 9.7 0.00 0.00 0.00 82 993.7
20260906013935 25 105 3.2 11.3 0.00 0.00 0.00 82 993.6
20260906013429 25 109 3.2 11.3 0.00 0.00 0.00 82 993.5
20260906012922 25 84 3.2 8.0 0.00 0.00 0.00 82 993.3
20260906012417 25 68 1.6 8.0 0.00 0.00 0.00 82 993.4
20260906011911 25 78 1.6 6.4 0.00 0.00 0.00 82 993.4
20260906010859 25 97 3.2 6.4 0.00 0.00 0.00 82 993.0
20260906010352 25 109 1.6 9.7 0.00 0.00 0.00 82 993.1
20260906005847 25 97 1.6 9.7 0.00 0.00 0.00 82 992.9
20260906005340 25 147 3.2 6.4 0.00 0.00 0.00 82 992.8
20260906004834 25 107 3.2 6.4 0.00 0.00 0.00 82 992.8
20260906004329 25 88 1.6 6.4 0.00 0.00 0.00 81 992.9
20260906003822 25 40 1.6 3.2 0.00 0.00 0.00 81 992.9
20260906003317 25 40 1.6 4.8 0.00 0.00 0.00 81 993.0
20260906002811 25 36 1.6 4.8 0.00 0.00 0.00 80 993.0
20260906002306 26 32 1.6 4.8 0.00 0.00 0.00 80 993.1
20260906001252 26 18 1.6 4.8 0.00 0.00 0.00 80 993.1
20260906000746 26 18 1.6 6.4 0.00 0.00 0.00 79 993.2
20260906000241 26 11 3.2 6.4 0.00 0.00 0.00 79 993.2
20260905235734 26 34 3.2 6.4 0.00 0.00 0.00 79 993.2
20260905234733 26 30 4.8 12.9 0.00 0.00 0.00 79 993.3
20260905234232 26 103 6.4 12.9 0.00 0.00 0.00 78 993.2
20260905233733 26 111 6.4 12.9 0.00 0.00 0.00 78 993.2
20260905233232 26 72 3.2 11.3 0.00 0.00 0.00 78 993.3
20260905232733 26 94 3.2 11.3 0.00 0.00 0.00 78 993.3
20260905232233 26 55 4.8 12.9 0.00 0.00 0.00 77 993.3
20260905231732 26 102 6.4 12.9 0.00 0.00 0.00 77 993.3
20260905231232 26 49 4.8 14.5 0.00 0.03 0.00 77 993.3
20260905230233 26 26 4.8 16.1 0.00 0.03 0.00 76 993.3
20260905225732 26 98 4.8 16.1 0.00 0.03 0.00 76 993.3
20260905224732 27 101 6.4 16.1 0.00 0.03 0.00 76 993.3
20260905224232 27 36 8.0 17.7 0.00 0.03 0.00 76 993.3
20260905223733 27 96 9.7 17.7 0.00 0.03 0.00 76 993.4
20260905222732 28 101 8.0 17.7 0.00 0.03 0.00 74 993.3
20260905222232 28 114 9.7 17.7 0.00 0.03 0.00 74 993.2
20260905221732 28 36 8.0 17.7 0.00 0.03 0.00 74 993.2
20260905221232 28 123 9.7 17.7 0.00 0.03 0.00 75 993.1
20260905220733 28 114 8.0 17.7 0.00 0.03 0.00 75 993.2
20260905220232 28 134 8.0 17.7 0.00 0.03 0.00 74 993.2
20260905215233 28 109 4.8 14.5 0.00 0.03 0.00 74 993.3
20260905214730 28 74 4.8 14.5 0.00 0.03 0.00 74 993.2
20260905214230 28 43 6.4 17.7 0.00 0.03 0.00 74 993.3
20260905213729 28 85 6.4 17.7 0.00 0.03 0.00 75 993.3
20260905213226 28 83 4.8 12.9 0.00 0.03 0.00 75 993.2
20260905212726 28 71 4.8 12.9 0.00 0.03 0.00 75 993.2
20260905211726 28 103 6.4 16.1 0.00 0.03 0.00 74 993.0
20260905211224 28 86 4.8 9.7 0.00 0.03 0.00 75 993.2
20260905210722 28 38 6.4 16.1 0.00 0.03 0.00 77 993.1
20260905210222 28 26 8.0 16.1 0.00 0.03 0.00 77 993.2
20260905205220 28 89 6.4 14.5 0.00 0.03 0.00 76 993.1
20260905204723 28 72 6.4 12.9 0.00 0.03 0.00 76 993.2
20260905204220 28 302 6.4 14.5 0.00 0.03 0.00 78 993.1
20260905203719 28 0 6.4 19.3 0.00 0.03 0.00 78 993.2
20260905203218 28 33 6.4 19.3 0.00 0.03 0.00 78 993.2
20260905202219 28 73 4.8 11.3 0.00 0.03 0.00 79 993.1
20260905201718 28 44 4.8 14.5 0.00 0.03 0.00 79 993.3
20260905201216 28 66 6.4 14.5 0.00 0.03 0.00 78 993.4
20260905200716 28 96 4.8 14.5 0.00 0.03 0.00 79 993.5
20260905200216 28 11 4.8 12.9 0.00 0.03 0.00 78 993.5
20260905195215 28 36 6.4 12.9 0.00 0.03 0.00 79 993.7
20260905194709 28 86 4.8 14.5 0.00 0.03 0.00 78 993.6
20260905194201 28 52 3.2 14.5 0.00 0.03 0.00 77 993.6
20260905193656 28 23 3.2 16.1 0.00 0.03 0.00 79 993.6
20260905193149 27 53 6.4 16.1 0.00 0.03 0.00 79 993.7
20260905192644 27 22 6.4 17.7 0.00 0.03 0.00 82 993.8
20260905192137 27 16 6.4 17.7 0.00 0.03 0.00 83 993.6
20260905191632 27 35 8.0 16.1 0.00 0.03 0.00 84 993.7
20260905191126 27 42 8.0 16.1 0.00 0.03 0.00 84 993.8
20260905190619 26 47 6.4 12.9 0.00 0.03 0.00 84 993.8
20260905190114 26 80 4.8 14.5 0.00 0.03 0.00 84 993.8
20260905185607 26 91 4.8 14.5 0.00 0.03 0.00 84 993.9
20260905185102 26 355 4.8 11.3 0.00 0.03 0.00 84 994.0
20260905184555 26 40 6.4 17.7 0.00 0.03 0.00 85 994.1
20260905184049 26 29 6.4 17.7 0.00 0.03 0.00 85 993.9
20260905183544 26 43 4.8 11.3 0.00 0.03 0.00 85 994.0
20260905183037 26 55 6.4 12.9 0.00 0.03 0.00 85 993.9
20260905182532 26 58 6.4 17.7 0.00 0.03 0.00 85 994.0
20260905182025 26 31 6.4 17.7 0.00 0.03 0.00 85 993.8
20260905181520 26 29 6.4 17.7 0.00 0.03 0.00 85 993.8
20260905175456 26 28 4.8 12.9 0.00 0.03 0.00 84 993.9
20260905174949 26 67 4.8 12.9 0.00 0.03 0.00 85 993.8
20260905174444 26 30 4.8 14.5 0.00 0.03 0.00 85 993.9
20260905173938 26 74 6.4 14.5 0.00 0.03 0.00 85 994.0
20260905173431 26 109 6.4 16.1 0.00 0.03 0.00 85 993.9
20260905172925 26 78 8.0 19.3 0.00 0.03 0.00 86 994.0
20260905171913 26 86 8.0 16.1 0.00 0.03 0.00 85 993.9
20260905171407 26 9 6.4 14.5 0.00 0.03 0.00 85 994.0
20260905170901 26 91 4.8 12.9 0.00 0.03 0.00 85 994.1
20260905170355 26 5 4.8 9.7 0.00 0.03 0.00 84 994.2
20260905165850 26 53 6.4 14.5 0.00 0.03 0.00 84 994.3
20260905165344 26 20 6.4 14.5 0.00 0.03 0.00 84 994.3
20260905164837 26 121 3.2 12.9 0.00 0.08 0.00 83 994.4
20260905164332 26 94 3.2 11.3 0.00 0.08 0.00 83 994.4
20260905163826 26 92 4.8 12.9 0.00 0.08 0.00 84 994.2
20260905163319 26 9 4.8 14.5 0.00 0.08 0.00 83 994.2
20260905162307 26 87 6.4 16.1 0.00 0.08 0.00 83 994.2
20260905161801 26 101 4.8 16.1 0.00 0.08 0.00 83 994.2
20260905161255 26 76 6.4 12.9 0.00 0.08 0.00 83 994.2
20260905160244 26 33 6.4 14.5 0.00 0.08 0.00 84 994.0
20260905155743 26 101 6.4 16.1 0.00 0.08 0.00 83 994.0
20260905155242 27 82 6.4 16.1 0.00 0.08 0.00 82 994.0
20260905154242 26 42 6.4 14.5 0.00 0.08 0.00 83 993.8
20260905153241 26 11 6.4 16.1 0.00 0.08 0.00 84 993.8
20260905152241 26 79 8.0 19.3 0.00 0.08 0.00 84 993.7
20260905151239 26 40 6.4 16.1 0.00 0.08 0.00 85 993.7
20260905150239 26 5 6.4 16.1 0.00 0.08 0.00 85 993.4
20260905145739 26 34 6.4 16.1 0.00 0.08 0.00 85 993.4
20260905145242 25 11 6.4 14.5 0.00 0.08 0.00 85 993.5
20260905144742 25 10 6.4 14.5 0.00 0.08 0.00 86 993.4
20260905143740 25 0 6.4 14.5 0.00 0.08 0.00 87 993.3
20260905143240 25 52 6.4 16.1 0.00 0.08 0.00 87 993.3
20260905142740 25 19 8.0 16.1 0.00 0.08 0.00 88 993.3
20260905142237 25 15 6.4 16.1 0.00 0.08 0.00 90 993.3
20260905141738 24 22 6.4 14.5 0.00 0.08 0.00 92 993.2
20260905141237 24 5 6.4 14.5 0.00 0.08 0.00 93 993.2
20260905140737 23 0 6.4 14.5 0.00 0.08 0.00 94 993.2
20260905140238 23 349 4.8 12.9 0.00 0.08 0.00 95 993.1
20260905135737 23 5 4.8 9.7 0.00 0.08 0.00 96 993.0
20260905135234 23 16 3.2 9.7 0.00 0.08 0.00 97 993.0
20260905134733 23 5 3.2 9.7 0.00 0.08 0.00 97 992.8
20260905134234 23 277 1.6 4.8 0.00 0.08 0.00 97 992.8
20260905133733 23 279 1.6 4.8 0.00 0.08 0.00 97 992.6
20260905132733 23 348 0.0 4.8 0.00 0.08 0.00 97 992.5
20260905132233 22 348 1.6 4.8 0.00 0.08 0.00 98 992.3
20260905131733 22 18 1.6 8.0 0.00 0.08 0.00 98 992.4
20260905131233 22 15 3.2 8.0 0.00 0.08 0.00 97 992.6
20260905130734 22 28 3.2 6.4 0.00 0.08 0.00 97 992.5
20260905130233 22 0 1.6 6.4 0.00 0.08 0.00 98 992.6
20260905125733 22 0 1.6 4.8 0.00 0.08 0.00 98 992.6
20260905125233 22 340 3.2 8.0 0.00 0.08 0.00 97 992.4
20260905124733 22 9 1.6 8.0 0.00 0.08 0.00 97 992.4
20260905124234 22 13 0.0 0.0 0.00 0.08 0.00 98 992.4
20260905123734 22 13 0.0 0.0 0.00 0.08 0.00 97 992.5
20260905123233 22 16 0.0 0.0 0.00 0.08 0.00 97 992.3
20260905122735 21 14 0.0 0.0 0.00 0.08 0.00 98 992.0
20260905121733 21 14 0.0 0.0 0.00 0.08 0.00 97 991.8
20260905121231 21 14 0.0 0.0 0.00 0.08 0.00 97 991.9
20260905120731 21 15 0.0 3.2 0.00 0.08 0.00 97 991.9
20260905120231 21 15 1.6 4.8 0.00 0.08 0.00 97 992.0
20260905115731 21 15 3.2 4.8 0.00 0.08 0.00 97 991.9
20260905115224 21 15 3.2 4.8 0.00 0.08 0.00 97 992.0
20260905114719 21 11 3.2 4.8 0.00 0.08 0.00 97 992.1
20260905113707 21 331 1.6 4.8 0.00 0.08 0.00 97 992.0
20260905113200 21 318 1.6 3.2 0.00 0.08 0.00 97 991.8
20260905112654 22 316 1.6 3.2 0.00 0.08 0.00 97 991.7
20260905112153 22 316 0.0 0.0 0.00 0.08 0.00 97 991.5
20260905111639 22 316 0.0 0.0 0.00 0.08 0.00 97 991.3
20260905111132 22 317 0.0 0.0 0.00 0.08 0.00 97 991.2
20260905110627 22 315 0.0 0.0 0.00 0.08 0.00 97 991.2
20260905110121 21 316 0.0 0.0 0.00 0.08 0.00 97 991.2
20260905105615 21 316 0.0 0.0 0.00 0.08 0.00 97 991.1
20260905105109 21 349 0.0 1.6 0.00 0.08 0.00 97 991.1
20260905104603 21 349 1.6 4.8 0.00 0.08 0.00 97 991.1
20260905104057 21 5 3.2 8.0 0.00 0.08 0.00 97 991.1
20260905103551 21 0 3.2 8.0 0.00 0.08 0.00 97 991.0
20260905103045 21 11 1.6 8.0 0.00 0.08 0.00 97 990.9
20260905102538 21 309 0.0 0.0 0.00 0.08 0.00 96 990.9
20260905102033 21 309 0.0 0.0 0.00 0.08 0.00 96 991.0